User: anonymous   Login
Location: Kuffner-Sternwarte
(48.2130°N, 16.2960°E)
Time: 23:20:19
(UTC+01:00)
Language:

COROT - Orbit

View from above orbital plane
View from above orbital plane
View from above satellite
View from above satellite

Ground track
Ground track

The orbit data is extracted from the following two-line orbital elements,

1 29678U 06063A   17080.86392764 +.00000275 +00000-0 +58628-4 0  9995
2 29678 090.0362 014.8646 0204091 049.9165 311.9733 14.44032421527469
Epoch (UTC): 21 March 2017 20:44:03
Eccentricity: 0.0204091
inclination: 90.0362°
perigee height: 600 km
apogee height: 890 km
right ascension of ascending node: 14.8646°
argument of perigee: 49.9165°
revolutions per day: 14.44032421
mean anomaly at epoch: 311.9733°
orbit number at epoch: 52746

The dashed part of the orbit path shows where the satellite is in the earth's shadow,  

DLR